Location: Goettingen
(51.5300°N, 9.9433°E)
Time: 03:17:53
(UTC+02:00)

ISS - Pass Details

Date: 16 September 2018
Orbit: 403 x 408 km, 51.6° (Epoch: 25 September)

Event Time Altitude Azimuth Distance (km) Brightness Sun altitude
Exits shadow 05:43:15 19° 229° (SW) 1,044 -2.3 -11.9°
Maximum altitude 05:43:44 19° 216° (SW) 1,021 -2.3 -11.8°
Drops below altitude 10° 05:46:10 10° 168° (SSE) 1,456 -1.1 -11.5°
Sets 05:48:36 0° 150° (SSE) 2,310 0.2 -11.1°
